AirNav   Everest Fuels
 
 1206 users online  

WN13 Vaughan Ranch Airfield
Port Orchard, Washington, USA

GOING TO PORT ORCHARD?


FAA INFORMATION EFFECTIVE 14 JULY 2022

Location

FAA Identifier: WN13
Lat/Long: 47-27-49.3480N 122-34-08.4770W
47-27.822467N 122-34.141283W
47.4637078,-122.5690214
(estimated)
Elevation: 240 ft. / 73 m (estimated)
Variation: 20E (1985)
From city: 5 miles SE of PORT ORCHARD, WA
Time zone: UTC -7 (UTC -8 during Standard Time)
Zip code: 98367

Airport Operations

Airport use: Private use. Permission required prior to landing
Activation date: 03/1982
Control tower: no
ARTCC: SEATTLE CENTER
FSS: SEATTLE FLIGHT SERVICE STATION
Attendance: UNATNDD
Wind indicator: yes
Segmented circle: no

Airport Communications

WX AWOS-3PT at PWT (8 nm W): 121.2 (360-674-2811)
WX ASOS at SEA (10 nm E): PHONE 206-214-2592
WX ASOS at BFI (12 nm E): PHONE 206-658-6435
WX ASOS at TIW (12 nm S): PHONE 253-858-6507
WX ASOS at RNT (14 nm E): 126.95 (425-255-6080)
WX ASOS at TCM (20 nm S): PHONE 253-982-3434

Nearby radio navigation aids

VOR radial/distance  VOR name  Freq  Var
SEAr260/10.7SEATTLE VORTAC116.8019E
PAEr183/29.8PAINE VOR/DME110.6020E
OLMr006/32.5OLYMPIA VORTAC113.4019E

Airport Services

Runway Information

Runway 2/20

Dimensions: 1850 x 50 ft. / 564 x 15 m
Surface: turf
RUNWAY 2  RUNWAY 20
Traffic pattern: leftleft
Obstructions: 60 ft. tree, 400 ft. from runway50 ft. tree, 400 ft. from runway

Airport Ownership and Management from official FAA records

Ownership: Privately-owned
Owner: VAUGHAN RANCH HOMEOWNERS ASSN
P.O. BOX 154
OLALLA, WA 98359
Phone 253-858-4008
Manager: NANCY HANCOCK
6432 SE MULLENIX ROAD
PORT ORCHARD, WA 98367
HOMEOWNERS ASSOCIATION SECRETARY.

Airport Operational Statistics

Aircraft based on the field: 20
Single engine airplanes: 20
    

Additional Remarks

LAND NORTH TAKEOFF SOUTH.
LANDING NORTH UPHILL.
NORMAL PREVAILING WINDS ARE FROM SOUTHWEST.
RY 02 HAS TERRAIN DROP OFF ON BOTH SIDES OF RY AND DIRT BANK ON LEFT SIDE.
ANIMALS, DOMESTIC AND WILD, IN VICINITY OF ARPT.
TREES BOTH SIDES OF RY.
FOR CD CTC SEATTLE APCH AT 206-214-4794.

Instrument Procedures

There are no published instrument procedures at WN13.

Some nearby airports with instrument procedures:

KPWT - Bremerton National Airport (8 nm W)
KSEA - Seattle-Tacoma International Airport (10 nm E)
KBFI - Boeing Field/King County International Airport (12 nm E)
KTIW - Tacoma Narrows Airport (12 nm S)
KRNT - Renton Municipal Airport (14 nm E)
S50 - Auburn Municipal Airport (16 nm SE)
KTCM - McChord Field Airport (Joint Base Lewis-McChord) (20 nm S)
 
Loc | Ops | Rwys | IFR | FBO | Links
Com | Nav | Svcs | Stats | Notes
Area around WN13 (Vaughan Ranch Airfield)
 
Road maps at: MapQuest Bing Google
 
Aerial photo
WARNING: Photo may not be current or correct
Aerial photo of WN13 (Vaughan Ranch Airfield)
Do you have a better or more recent aerial photo of Vaughan Ranch Airfield that you would like to share? If so, please send us your photo.

 
Sectional chart

 
Airport distance calculator
Flying to Vaughan Ranch Airfield? Find the distance to fly.

From to WN13

Sunrise and sunset
Times for 10-Aug-2022
 Local
(UTC-7)
 Zulu
(UTC)
Morning civil twilight05:2612:26
Sunrise06:0113:01
Sunset20:3003:30
Evening civil twilight21:0504:05

Current date and time
Zulu (UTC)  11-Aug-2022 00:58:47
Local (UTC-7)  10-Aug-2022 17:58:47
 
METAR
KPWT 
8nm W 
102356Z AUTO 22018KT 10SM CLR 20/14 A3010 RMK AO2 SLP196 T02000139 10222 20167 53011
KSEA 
10nm E 
110053Z 19006KT 10SM FEW019 SCT030 BKN042 19/14 A3011 RMK AO2 SLP202 T01940144
KBFI 
11nm NE 
110053Z 17010G15KT 10SM BKN024 BKN029 21/15 A3011 RMK AO2 SLP196 T02110150
KTIW 
12nm S 
110053Z 24005KT 10SM OVC025 18/14 A3012 RMK AO2 SLP198 T01830144
KRNT 
14nm E 
110053Z 19006KT 10SM OVC046 21/14 A3010 RMK AO2 SLP198 T02060139
TAF
KPWT 
8nm W 
101727Z 1018/1118 20013G22KT P6SM VCTS BKN015 BKN035CB FM101900 22008KT P6SM SCT015 OVC030 FM110000 20007KT P6SM SCT010 OVC040 FM110500 VRB03KT P6SM SCT250 FM111300 VRB02KT P6SM OVC010
KSEA 
10nm E 
102053Z 1021/1124 22007KT P6SM SCT015 BKN030 OVC040 FM102300 20005KT P6SM BKN050 FM110200 21004KT P6SM BKN050 FM110800 VRB03KT P6SM SCT250 FM111600 36003KT P6SM SCT250
KBFI 
11nm NE 
101727Z 1018/1118 20005KT P6SM VCTS BKN015 OVC030CB FM101900 20007KT P6SM VCSH SCT015 OVC030 FM110200 VRB03KT P6SM BKN050 FM110600 VRB03KT P6SM SCT250
NOTAMs
Click for the latest NOTAMs
NOTAMs are issued by the DoD/FAA and will open in a separate window not controlled by AirNav.

 

 
 

Would you like to see your business listed on this page?

 If your business provides an interesting product or service to pilots, flight crews, aircraft, or users of the Vaughan Ranch Airfield, you should consider listing it here.  To start the listing process, click on the button below
 
Add a business
 

Other Pages about Vaughan Ranch Airfield

Update a link
 
Copyright © AirNav, LLC. All rights reserved. Privacy Policy  Contact